Theta_e
346 348 349 348 346 345 344 346 344 345 345 345 343 344 343 342 340 335 333 326 326 326 328 331 333 335 337 339 342 344 345 346 347 347 347 347 346 346 345 345 345 344 343
349 347 349 345 346 347 346 346 348 343 343 342 344 344 343 342 343 340 340 337 334 333 334 335 337 339 342 345 345 346 346 347 348 349 348 348 347 348 349 348 347 346 346
351 348 346 348 347 347 351 347 345 345 342 342 345 345 343 343 344 345 345 345 341 339 339 341 343 344 344 344 345 345 346 348 349 349 350 349 348 352 353 351 349 350 347
351 349 348 346 346 348 346 344 344 342 343 343 345 345 343 342 345 346 346 347 347 346 342 342 343 343 344 344 344 344 347 349 350 350 350 350 349 352 352 351 353 351 349
352 351 350 348 352 347 345 344 341 345 343 344 344 344 344 343 345 344 347 347 346 347 347 346 349 347 345 344 343 345 349 350 350 350 350 351 348 352 348 349 351 348 349
351 353 349 349 354 349 347 347 349 344 343 344 345 343 344 344 345 345 345 345 346 348 346 351 353 351 348 348 345 347 348 349 351 352 352 351 350 351 347 344 348 348 350
352 353 351 351 351 350 352 351 351 348 343 343 347 342 342 343 345 344 344 344 344 345 346 349 350 351 352 350 348 346 346 348 348 350 351 352 352 348 350 344 339 339 342
353 351 354 352 352 350 353 354 353 350 343 343 346 345 345 343 343 343 343 342 344 344 346 349 349 352 352 351 350 347 345 345 346 349 350 351 352 351 350 348 341 337 339
351 354 353 356 351 352 351 354 350 351 345 344 351 352 349 354 343 342 342 343 343 346 346 346 347 350 352 354 352 350 344 344 345 347 345 345 347 350 348 350 346 341 340
351 352 353 354 354 353 353 352 351 356 350 344 344 347 353 354 358 346 341 343 342 343 345 345 345 349 351 350 352 349 343 345 346 346 344 344 343 344 350 348 349 346 342
351 351 353 354 354 353 352 355 352 354 352 351 347 346 348 348 346 348 352 345 342 343 347 347 346 347 352 353 351 349 346 345 347 349 345 344 341 338 342 348 348 349 347
352 352 352 353 353 353 353 351 354 353 355 355 352 347 346 348 351 350 349 347 347 348 347 350 350 349 350 350 352 348 348 350 346 346 343 339 338 336 336 345 347 348 348
349 352 353 353 352 353 355 352 354 356 352 354 355 353 344 345 346 348 347 350 346 346 348 349 351 350 349 348 351 350 348 350 350 347 344 344 340 337 335 342 346 347 348
350 354 353 352 352 354 353 354 352 349 350 351 353 354 353 346 346 346 347 347 348 349 349 348 347 350 350 349 349 347 347 347 348 344 347 349 346 340 337 338 341 345 346
352 355 352 352 352 352 353 354 352 354 355 354 350 352 351 348 345 346 346 346 347 348 347 354 348 349 350 350 349 350 349 348 343 347 348 344 342 340 338 341 340 340 343
353 354 354 354 354 354 354 354 351 352 353 352 348 349 354 348 350 347 346 345 345 346 348 344 344 345 352 351 348 350 351 349 346 346 346 343 340 339 341 342 342 340 339
352 354 355 354 353 355 355 355 356 353 354 353 352 352 351 352 351 349 349 347 345 345 346 346 346 344 346 351 351 352 350 350 346 346 345 342 342 341 341 342 342 342 341
353 354 355 354 352 354 354 355 356 351 352 352 352 352 352 349 353 353 351 350 347 348 347 350 347 350 346 350 350 352 349 348 347 349 343 343 343 345 346 347 348 347 347
353 353 353 353 354 353 353 354 355 352 352 351 350 351 352 352 352 353 354 352 349 352 351 350 347 346 347 347 350 348 349 350 346 344 344 345 346 346 347 347 350 350 347
352 352 353 353 354 353 354 352 354 354 354 352 352 352 351 352 353 354 353 354 353 352 349 350 349 348 347 352 351 347 346 344 347 347 346 346 347 347 347 347 350 351 349
350 351 351 352 352 352 350 352 353 354 355 353 352 353 351 352 352 351 350 352 355 353 351 351 349 347 348 353 348 348 348 347 349 348 348 348 348 348 347 347 351 351 350
351 351 352 353 353 351 348 349 349 354 354 356 355 352 351 353 354 353 353 350 351 355 355 354 352 350 353 352 352 353 355 353 354 352 355 353 351 348 348 349 351 352 351
352 353 352 353 352 348 347 348 349 349 353 355 355 355 355 350 351 352 352 351 351 351 351 352 355 354 354 355 356 356 354 355 355 355 355 355 354 354 353 350 350 350 352
350 350 349 346 340 335 344 346 346 352 354 354 354 353 351 348 343 342 342 349 350 351 352 353 354 351 348 347 345 347 349 351 353 354 355 354 354 354 355 355 354 352 353
345 343 342 338 332 332 341 344 348 351 349 346 342 340 339 330 322 324 339 341 342 343 337 333 333 335 338 339 339 341 347 349 353 352 353 351 353 354 354 354 353 353 352
340 340 333 328 323 323 332 338 341 345 346 340 332 326 321 319 318 318 332 331 331 328 329 335 340 340 340 342 342 340 347 347 348 348 349 348 348 349 351 352 353 353 353
Wind_Speed
8 9 2 7 3 6 7 5 7 6 7 6 7 6 8 8 8 10 7 7 7 7 6 7 7 8 8 10 11 12 13 14 15 15 15 16 16 15 13 11 9 9 10
4 7 6 6 2 8 7 8 4 5 8 10 6 6 7 8 7 8 9 9 9 8 8 8 8 8 9 10 11 12 13 14 14 13 14 15 16 14 12 10 8 6 9
1 3 4 1 7 5 6 5 5 4 8 9 8 4 8 6 7 6 6 8 8 10 8 8 7 8 9 9 11 12 13 14 14 13 14 16 17 15 13 12 9 4 6
4 3 5 5 5 2 4 1 3 5 4 7 4 6 6 8 6 5 6 5 5 7 8 7 7 8 9 10 11 13 13 13 14 14 14 15 17 16 14 12 11 7 1
3 1 3 5 4 1 1 3 4 5 3 3 11 7 5 7 7 7 6 5 5 2 6 6 6 8 10 11 12 13 14 15 15 15 14 14 15 16 14 13 10 9 4
4 2 4 2 6 1 4 9 8 5 5 4 7 7 6 6 5 6 6 7 5 5 5 2 4 2 8 9 13 13 14 15 15 16 15 13 12 14 14 13 10 9 6
5 3 6 4 3 6 8 1 4 3 2 1 6 7 6 7 6 6 5 5 4 3 3 2 4 4 5 3 12 14 15 15 15 15 16 15 12 11 12 12 11 10 8
4 4 1 3 2 4 2 2 6 6 5 2 7 2 5 6 6 8 4 4 1 3 4 2 2 3 5 5 6 12 16 16 16 17 17 15 14 10 10 10 10 10 10
5 1 3 3 2 0 4 1 3 6 4 4 5 9 3 1 8 7 6 4 4 4 1 2 2 2 4 3 7 10 16 17 17 16 16 16 15 12 8 8 8 8 8
6 5 5 3 4 5 3 2 2 7 8 5 3 6 6 5 4 4 7 5 6 7 2 6 2 4 3 8 7 11 16 19 17 14 14 16 17 16 9 7 7 6 6
7 7 6 5 4 4 3 2 1 7 7 9 4 3 3 2 3 11 0 10 5 4 2 1 4 5 2 0 7 11 16 18 18 14 14 16 17 18 14 7 6 6 5
9 6 7 5 5 6 2 4 3 3 7 8 8 6 6 10 13 8 3 3 4 3 1 2 3 4 7 5 5 13 16 14 17 15 15 16 16 17 16 11 7 7 6
8 9 8 6 6 7 3 5 5 2 2 3 8 10 1 7 8 9 11 6 4 3 3 7 3 2 4 8 9 13 18 11 17 17 15 17 17 17 17 12 9 9 8
6 12 8 6 5 5 7 6 8 7 8 4 4 8 10 4 3 4 9 12 9 9 12 11 15 4 9 10 10 17 16 20 19 20 16 18 19 17 16 14 12 11 11
6 8 7 7 7 7 7 6 9 6 5 5 7 6 7 12 6 7 6 7 8 8 9 2 3 10 7 12 18 16 18 18 19 12 13 17 19 16 12 13 14 14 13
1 11 7 7 7 7 7 7 10 10 7 8 8 7 5 11 11 8 8 10 10 11 8 16 17 15 12 14 16 18 17 20 19 8 10 17 18 14 9 12 14 15 16
4 1 4 6 6 8 8 8 10 3 6 7 8 5 6 7 8 12 14 11 9 11 13 12 16 16 18 9 12 12 16 18 12 11 12 16 16 15 15 18 17 17 17
4 5 5 6 7 7 8 9 10 8 8 8 8 7 7 8 4 7 9 8 8 12 10 10 13 14 15 7 7 10 13 13 14 9 15 16 12 16 20 17 15 15 17
8 8 8 7 8 8 7 7 9 8 8 8 7 8 7 7 7 8 8 11 12 10 9 13 15 13 15 17 8 13 13 10 16 17 18 7 9 22 19 18 13 10 13
11 10 10 9 9 10 9 9 9 9 9 9 9 9 8 9 8 8 9 8 10 11 13 14 17 19 16 14 11 16 18 15 16 18 18 15 17 21 18 19 12 9 12
13 13 12 11 9 10 10 11 11 11 10 11 10 8 12 10 8 8 9 9 9 11 13 16 16 18 16 18 16 15 19 19 21 20 20 18 21 18 19 18 8 5 13
13 13 13 12 11 9 8 13 14 10 9 9 10 9 8 4 6 6 10 12 12 10 12 13 15 17 17 16 18 18 19 20 19 17 22 22 18 15 15 15 2 8 18
8 8 7 5 3 4 12 14 16 15 11 9 9 7 9 3 0 6 10 12 11 12 12 13 14 16 17 14 14 17 19 20 22 23 23 24 28 22 20 16 9 16 14
5 6 7 6 4 3 1 4 7 6 9 4 5 3 1 2 6 5 5 7 7 8 9 8 10 13 15 18 18 18 20 22 22 21 20 16 17 19 18 22 23 11 6
6 7 9 6 4 3 1 2 5 5 5 5 5 6 5 3 5 6 6 6 8 6 8 11 14 11 10 10 8 8 12 16 15 17 17 19 19 24 23 19 18 7 22
9 14 9 4 4 4 4 3 3 3 5 5 6 7 5 5 6 7 7 8 8 11 14 12 9 10 9 9 10 6 14 13 17 15 15 22 20 16 14 14 22 22 23
Wind_Direction
118 105 106 68 71 113 111 93 88 95 123 112 95 91 90 88 95 102 92 91 94 96 94 84 69 56 39 28 14 6 356 349 348 347 346 343 338 335 329 320 304 274 246
124 133 166 131 80 51 62 64 15 98 119 112 95 88 95 100 96 104 109 85 83 87 88 82 72 58 39 23 11 5 357 353 351 354 353 349 351 351 347 342 325 287 246
129 122 103 82 98 94 162 139 146 143 124 118 120 117 112 113 110 115 120 128 99 79 78 72 61 45 33 22 19 13 6 4 2 360 2 359 1 2 359 359 353 324 242
149 126 186 112 122 193 129 74 148 96 87 93 77 99 110 118 122 125 116 116 138 137 81 62 54 42 30 23 19 17 11 5 4 4 2 4 6 7 6 11 13 22 67
158 314 59 111 235 195 74 143 73 338 150 144 144 133 131 125 180 113 123 137 131 86 132 64 42 41 31 26 21 19 14 11 6 3 3 4 7 11 11 18 19 20 26
171 209 112 145 234 277 120 48 3 13 16 321 8 88 105 129 139 145 138 149 131 161 114 62 324 75 32 26 23 19 14 9 6 4 3 3 4 11 16 16 20 23 29
156 190 175 166 275 122 59 297 235 186 97 295 278 136 127 161 161 148 155 155 130 145 98 88 40 16 357 65 22 15 9 6 0 356 356 358 1 5 14 18 18 24 31
177 188 196 194 98 124 136 342 324 320 96 352 325 268 161 186 149 132 137 166 125 133 131 125 35 26 360 56 23 18 8 3 359 357 354 354 355 357 6 15 21 21 33
181 200 218 16 167 347 162 189 317 324 70 106 346 340 341 205 160 163 180 131 177 170 122 201 113 47 336 336 65 14 3 1 356 355 360 2 357 355 350 2 15 23 26
196 186 206 212 225 320 107 200 305 336 327 125 142 47 30 2 330 162 155 130 193 212 103 300 23 145 6 356 80 21 4 3 359 355 357 1 359 353 349 338 356 9 21
200 200 205 209 227 253 182 349 358 322 332 333 77 164 342 195 357 332 223 143 169 196 162 275 6 334 30 28 11 8 1 3 3 356 349 354 356 354 351 334 330 343 353
187 200 192 207 222 271 197 222 224 281 347 359 3 312 336 34 306 353 352 224 1 170 288 190 117 330 324 1 74 12 347 344 356 355 350 350 356 354 353 345 321 320 324
175 177 192 198 220 234 229 225 221 241 251 313 318 319 7 332 351 336 315 46 296 275 215 296 19 118 293 340 352 354 329 325 340 336 337 343 346 344 345 350 333 314 310
223 156 185 203 221 213 221 213 229 229 216 240 281 315 319 274 288 309 328 337 320 313 333 322 347 30 356 15 13 348 332 326 329 324 322 328 330 333 333 341 344 327 308
145 172 183 204 208 209 225 224 245 226 255 232 245 251 273 289 260 287 282 291 307 313 318 276 2 12 1 334 338 332 327 319 311 306 323 336 331 326 327 337 338 334 330
58 170 169 194 212 214 222 231 244 219 236 252 245 243 274 287 313 264 277 292 296 290 293 305 317 345 3 337 320 333 321 314 309 285 337 336 337 333 321 329 326 322 320
344 357 219 241 235 236 234 236 269 265 212 245 274 283 268 275 281 297 323 313 287 291 296 318 332 317 325 305 318 323 323 305 334 332 320 327 330 330 316 322 318 312 310
226 222 215 211 227 231 231 232 236 248 223 244 250 256 264 265 277 281 288 278 295 304 299 300 286 305 309 303 307 306 311 325 328 297 323 309 312 331 326 324 324 320 318
233 227 215 223 235 241 234 231 234 241 239 239 244 248 254 264 264 289 303 304 307 325 308 292 322 294 304 297 290 304 292 295 317 345 330 327 335 317 311 307 309 322 343
234 236 243 237 230 238 235 233 231 238 253 249 248 253 251 251 262 269 277 287 282 298 292 275 273 284 295 2 356 345 319 324 343 323 325 332 325 321 316 302 285 290 327
233 236 238 238 236 238 233 228 234 236 242 255 255 254 254 253 257 265 273 282 288 283 295 317 317 315 329 344 338 316 316 329 318 327 327 324 325 319 321 319 223 282 327
229 227 226 228 233 239 250 222 222 242 243 251 264 245 261 257 282 265 266 262 257 265 278 287 293 300 314 321 311 314 312 317 312 315 330 310 298 310 318 327 326 327 331
208 219 214 204 164 236 261 252 239 240 246 242 251 272 271 29 291 290 292 300 288 279 268 273 283 290 305 309 309 308 309 308 302 305 298 303 308 328 337 320 316 317 310
169 169 127 98 82 355 318 279 234 229 214 184 150 166 143 13 302 308 327 313 312 301 290 287 287 300 301 295 298 296 298 297 300 304 315 328 316 317 322 321 327 325 328
144 133 113 92 61 54 111 204 133 162 139 130 110 120 101 60 33 15 9 355 343 339 325 317 306 317 328 335 332 308 323 339 320 327 325 349 337 332 325 314 325 304 323
181 150 136 121 109 75 114 123 74 148 156 135 118 91 59 55 41 33 27 360 356 339 329 323 316 312 309 315 330 308 341 351 346 328 349 350 331 324 320 316 330 318 322